Regional Weather Roundup
Issued by NWS

Home | Current Version | Previous Version | Text Only | Print | Product List | Glossary Off
Versions: 1 2 3 4 5 6 7 8 9 10 11 12 13 14 15 16 17 18 19 20 21 22 23 24 25 26 27 28 29 30 31 32 33 34 35 36 37 38 39 40 41 42 43 44 45 46 47 48 49 50

857
ASUS44 KMEG 070600
RWRTN
TENNESSEE HOURLY STATE WEATHER ROUNDUP
NATIONAL WEATHER SERVICE MEMPHIS TN
1200 AM CST SUN FEB 07 2016

TNZ002-004-019-021-049-052-054-088>092-070700-
WEST TENNESSEE

CITY           SKY/WX    TMP DP  RH WIND       PRES   REMARKS
MEMPHIS INTL   PTCLDY    36  22  56 SE3       30.28F
NWS MEMPHIS      N/A     32 N/A N/A MISG        N/A
JACKSON        CLEAR     27  24  89 CALM      30.29F
DYERSBURG      CLEAR     34  28  80 S5        30.29F WCI  30
$$

TNZ008-025-027-028-033-062-065-066-070700-
NORTH MIDDLE TENNESSEE

CITY           SKY/WX    TMP DP  RH WIND       PRES   REMARKS
NASHVILLE      CLEAR     34  24  67 CALM      30.27F
CLARKSVILLE    CLEAR     29  24  82 CALM      30.26F
CROSSVILLE     CLEAR     31  18  58 CALM      30.23F
$$

TNZ061-075-076-078-094-096-097-070700-
SOUTH MIDDLE TENNESSEE

CITY           SKY/WX    TMP DP  RH WIND       PRES   REMARKS
$$

TNZ017-018-042-046-047-070700-
NORTHEAST TENNESSEE

CITY           SKY/WX    TMP DP  RH WIND       PRES   REMARKS
TRI CITIES     PTCLDY    27  21  78 CALM      30.22F
$$

TNZ012-013-036-069-073-074-070700-
CENTRAL EAST TENNESSEE

CITY           SKY/WX    TMP DP  RH WIND       PRES   REMARKS
KNOXVILLE      PTCLDY    34  24  67 CALM      30.23F
OAK RIDGE      MOCLDY    34  26  72 CALM      30.26F
$$

TNZ083-085-099-070700-
SOUTHEAST TENNESSEE

CITY           SKY/WX    TMP DP  RH WIND       PRES   REMARKS
CHATTANOOGA    CLEAR     34  25  69 CALM      30.25F
$$

SKY/WX REPORTED AS FAIR MEANS FEW OR NO CLOUDS BELOW
12 THOUSAND FEET.





USA.gov is the U.S. government's official web portal to all federal, state and local government web resources and services.